Flag for Aruba Weather past 2 weeks in Oranjestad, Aruba

Now
81 °F

Passing clouds.


Feels Like: 85 °F
Forecast: 79 / 88 °F
Wind: 23 mph from East

Location: Queen Beatrix Airport - Aruba

Current Time: Mar 28, 2015 at 9:49:55 PM

Latest Report: Mar 28, 2015 at 9:00 PM


Visibility: N/A

Pressure: 29.95 "Hg

Humidity: 79%

Dew point: 73 °F

Location of OranjestadLocation

Historic Weather in Oranjestad — Graph

°F

Oranjestad temperature yesterday

Maximum temperature yesterday: 90 °F (at 12:00 PM)
Minimum temperature yesterday: 79 °F (at 4:00 AM)
Average temperature yesterday: 83 °F

Past Weeks' High & Low Weather Summary

 TemperatureHumidityPressure
High90 °F (Mar 24, 1:00 PM)89% (Mar 16, 7:00 AM)30.04 "Hg (Mar 16, 7:00 AM)
Low75 °F (Mar 21, 7:00 AM)52% (Mar 21, 2:00 PM)29.83 "Hg (Mar 14, 4:00 PM)
Average82 °F73%29.92 "Hg
* Reported Mar 13 9:00 PM — Mar 28 9:00 PM, Oranjestad, Weather by CustomWeather, © 2015

Note: Actual official high and low records may vary slightly from our data, if they occured in-between our weather recording intervals... More about our weather records

Advertising

Oranjestad weather history for previous 24 hours

 ConditionsComfort  
Time TempWeatherWind HumidityBarometerVisibility
9:00 PM
Sat, Mar 28
81 °FPassing clouds.23 mph79%29.95 "HgN/A
8:00 PM81 °FPassing clouds.23 mph79%29.92 "HgN/A
7:00 PM81 °FPassing clouds.25 mph79%29.86 "HgN/A
6:00 PM84 °FPassing clouds.25 mph70%29.89 "HgN/A
5:00 PM84 °FPassing clouds.28 mph70%29.89 "HgN/A
4:00 PM86 °FPassing clouds.25 mph70%29.89 "HgN/A
3:00 PM88 °FScattered clouds.28 mph66%29.92 "HgN/A
2:00 PM88 °FPassing clouds.28 mph66%29.92 "HgN/A
1:00 PM86 °FPassing clouds.29 mph66%29.98 "HgN/A
12:00 PM88 °FScattered clouds.23 mph66%30.01 "HgN/A
11:00 AM86 °FPassing clouds.24 mph70%30.01 "HgN/A
10:00 AM84 °FPassing clouds.25 mph70%30.01 "HgN/A
9:00 AM82 °FPassing clouds.23 mph74%30.01 "HgN/A
8:00 AM82 °FPassing clouds.17 mph74%29.98 "HgN/A
7:00 AM79 °FPassing clouds.15 mph84%29.95 "HgN/A
6:00 AM79 °FPassing clouds.15 mph84%29.92 "HgN/A
5:00 AM79 °FPassing clouds.18 mph84%29.89 "HgN/A
4:00 AM79 °FPassing clouds.15 mph84%29.89 "HgN/A
3:00 AM81 °FPassing clouds.18 mph79%29.89 "HgN/A
2:00 AM81 °FPassing clouds.21 mph79%29.92 "HgN/A
1:00 AM81 °FPassing clouds.18 mph79%29.92 "HgN/A
12:00 AM81 °FPassing clouds.17 mph79%29.95 "HgN/A
11:00 PM
Fri, Mar 27
81 °FPassing clouds.21 mph79%29.95 "HgN/A
10:00 PM81 °FPassing clouds.21 mph84%29.92 "HgN/A
9:00 PM81 °FPassing clouds.22 mph79%29.92 "HgN/A
Weather by CustomWeather, © 2015

See weather overviewHow to use our weather pages